[[{"header":{"parameterUnit":"m.s-1","parameterCategory":1,"la1":30.2991,"la2":30.254,"lo1":-89.0895,"lo2":-89.0444,"dy":0.0017,"dx":0.0017,"nx":28,"ny":28,"refTime":"2024-06-26T03:00:00:Z","depth":0,"parameterNumber":2,"parameterNumberName":"U-component_of_WINDS"},"data":[0,0,0,0,0,0,0,0,0,0,0,0,0,0,0,0,0,0,0,0,0,0,0,0,0,0,0,0,0,0,0,0,0,0,0,0,0,0,0,0,0,0,0,0,0,0,0,0,0,0,0,0,0,0,0,0,0,0,3.4226,3.4227,0,3.4304,3.4305,3.4306,3.427,3.4268,3.4267,3.4265,3.4351,3.4356,3.436,0,0,0,0,0,0,0,0,0,0,0,0,0,3.4053,3.4057,3.4226,3.4227,3.4228,3.4304,3.4305,3.4306,3.4271,3.4268,3.4266,3.4264,3.435,3.4355,3.436,0,0,0,0,0,0,0,0,0,0,0,0,0,3.413,3.4058,3.4226,3.4219,3.4219,3.4304,3.4305,3.4307,3.4271,3.4268,3.4265,3.4263,3.4348,3.4355,3.4361,3.4458,0,0,3.438,3.4382,0,0,0,0,0,0,0,0,3.4126,3.4136,3.4219,3.422,3.422,3.4274,3.4276,3.4358,3.4272,3.4252,3.4265,3.4261,3.4329,3.4336,3.4358,3.4462,3.4466,3.438,3.4384,3.4387,3.4388,0,0,0,0,0,0,0,3.412,3.4133,3.4257,3.422,3.4221,3.4215,3.4222,3.4291,3.4306,3.4253,3.4251,3.426,3.4328,3.4352,3.436,3.4467,3.438,3.4386,3.4389,3.4392,3.466,3.4663,0,0,0,0,0,0,3.4114,3.4128,3.4255,3.4259,3.4164,3.422,3.4229,3.426,3.4305,3.4309,3.4263,3.4258,3.4343,3.4352,3.4362,3.4482,3.4387,3.4392,3.4396,3.4657,3.4661,3.4664,0,0,0,0,0,0,3.4111,3.4126,3.4251,3.4193,3.4209,3.4226,3.4262,3.4263,3.4286,3.4312,3.4315,3.4283,3.4341,3.4354,3.4435,3.4484,3.4395,3.4401,3.4653,3.4658,3.4662,3.472,0,0,0,0,0,0,3.4106,3.4125,3.416,3.4194,3.4212,3.432,3.4265,3.4267,3.4297,3.4292,3.4332,3.4337,3.4339,3.4426,3.4441,3.4491,3.4406,3.4648,3.4655,3.4661,3.4714,3.4726,3.4737,0,0,0,0,0,3.41,3.4174,3.4162,3.4177,3.4256,3.4323,3.4334,3.4333,3.43,3.4338,3.4355,3.4335,3.4476,3.4435,3.4451,3.4504,3.4645,3.4653,3.466,3.4709,3.4724,3.4737,0,0,0,0,0,0,3.4146,3.4178,3.4165,3.4252,3.4285,3.4317,3.4363,3.4349,3.4394,3.4388,3.4388,3.4398,3.4482,3.4501,3.4454,3.4603,3.4556,3.4567,3.4587,3.4602,3.4613,3.4607,3.4411,0,0,0,0,0,3.4166,3.4215,3.4241,3.4316,3.4333,3.4346,3.4375,3.4372,3.4407,3.4421,3.4444,3.4481,3.4534,3.4569,3.4619,3.4716,3.4727,3.4761,3.4773,3.4782,3.4793,3.4849,3.4865,3.4689,3.4689,3.4689,0,0,3.4208,3.4232,3.4263,3.4326,3.4351,3.4405,3.4358,3.4416,3.4457,3.4431,3.4509,3.4528,3.4569,3.466,3.4701,3.4678,3.4844,3.4792,3.48,3.4805,3.4858,3.4875,3.489,3.4694,3.4694,3.4693,0,0,3.4313,3.4335,3.44,3.4427,3.4465,3.4473,3.4489,3.4524,3.4535,3.4613,3.4595,3.4646,3.4736,3.4767,3.4794,3.4914,3.4899,3.4931,3.4992,3.5047,3.5061,3.5073,3.5118,3.5134,3.4941,3.4941,3.4941,0,3.4361,3.4439,3.4436,3.4497,3.4526,3.4503,3.4572,3.4598,3.4652,3.4674,3.4648,3.4762,3.4788,3.4887,3.4917,3.4939,3.496,3.4926,3.5059,3.5071,3.5083,3.5125,3.5142,3.4944,3.4944,3.4944,3.4943,0,3.4498,3.4553,3.4602,3.4653,3.4688,3.4752,3.4761,3.4798,3.4793,3.4805,3.4887,3.4917,3.4974,3.4997,3.4993,3.5097,3.5082,3.5057,3.5011,3.5103,3.5144,3.516,3.495,3.4948,3.4947,3.4946,0,0,3.4633,3.4683,3.4701,3.4725,3.4767,3.4811,3.4876,3.493,3.4962,3.5001,3.5057,3.5135,3.5113,3.5145,3.5144,3.5192,3.5288,3.5162,3.5163,3.5186,3.5408,3.5427,3.5446,3.5278,3.5281,3.5284,3.5405,0,3.4743,3.4853,3.4854,3.4957,3.501,3.4991,3.5047,3.5081,3.5095,3.5144,3.516,3.5216,3.5181,3.52,3.5247,3.5267,3.5333,3.5258,3.5333,3.5336,3.5324,3.5466,3.5487,3.5599,3.542,3.5423,3.5425,0,3.4884,3.4927,3.5035,3.5072,3.5094,3.5145,3.5196,3.5242,3.5281,3.5288,3.5324,3.5317,3.5387,3.5338,3.5435,3.5384,3.5415,3.543,3.5434,3.5442,3.5387,3.548,3.5635,3.5652,3.5449,3.5447,3.5446,0,3.4975,3.5059,3.5135,3.5156,3.5201,3.5237,3.5258,3.5294,3.5328,3.5373,3.5396,3.5449,3.5479,3.5522,3.5532,3.5494,3.563,3.5581,3.564,3.564,3.567,3.5668,3.5834,3.5688,3.5688,3.5688,3.5687,0,3.5097,3.5165,3.5177,3.5224,3.53,3.5301,3.5378,3.5396,3.5429,3.5481,3.5468,3.5519,3.5527,3.558,3.5588,3.5669,3.5682,3.5692,3.5693,3.5694,3.5693,3.5715,3.5708,3.5692,3.5691,3.569,3.569,0,3.5211,3.5221,3.5303,3.5339,3.535,3.5405,3.5436,3.5483,3.5496,3.5563,3.5579,3.56,3.5662,3.5675,3.5749,3.5755,3.5851,3.5845,3.5838,3.5837,3.5897,3.5892,3.6083,3.6109,3.5945,3.5947,3.5948,0,3.5289,3.5341,3.5382,3.5415,3.5437,3.5491,3.5525,3.553,3.5566,3.5616,3.5658,3.5718,3.5766,3.5867,3.5891,3.5948,3.5944,3.6007,3.5953,3.5952,3.5947,3.5944,3.5951,3.6018,3.602,3.6021,3.6022,0,3.5427,3.543,3.5479,3.553,3.5571,3.5612,3.5651,3.568,3.5689,3.5732,3.5794,3.5832,3.5907,3.5969,3.6026,3.6051,3.604,3.6039,3.6056,3.6058,3.6052,3.6058,3.5868,3.6035,3.6034,3.6033,3.6032,3.6031,3.5527,3.5573,3.5609,3.5665,3.5694,3.5732,3.5778,3.5797,3.5848,3.5908,3.5909,3.5978,3.6019,3.6095,3.6123,3.6179,3.616,3.6184,3.6191,3.6197,3.6203,3.6042,3.619,3.6189,3.6189,3.6189,3.6189,0,3.5666,3.5689,3.574,3.5794,3.5839,3.5822,3.5866,3.5905,3.5965,3.6003,3.6051,3.6125,3.6185,3.6214,3.6274,3.6313,3.631,3.6329,3.6327,3.6333,3.6216,3.6196,3.6331,3.6331,3.6331,3.6331,3.6331,3.6331,3.5744,3.5821,3.5829,3.5923,3.5946,3.6012,3.6038,3.6074,3.6104,3.6186,3.6236,3.6253,3.6289,3.6352,3.6407,3.6415,3.6438,3.646,3.6466,3.6356,3.6341,3.6327,3.6309,3.6465,3.6465,3.6578,3.6579,3.658]},{"header":{"parameterUnit":"m.s-1","parameterCategory":1,"la1":30.2991,"la2":30.254,"lo1":-89.0895,"lo2":-89.0444,"dy":0.0017,"dx":0.0017,"nx":28,"ny":28,"refTime":"2024-06-26T03:00:00:Z","depth":0,"parameterNumber":3,"parameterNumberName":"V-component_of_WINDS"},"data":[0,0,0,0,0,0,0,0,0,0,0,0,0,0,0,0,0,0,0,0,0,0,0,0,0,0,0,0,0,0,0,0,0,0,0,0,0,0,0,0,0,0,0,0,0,0,0,0,0,0,0,0,0,0,0,0,0,0,2.0061,2.0062,0,2.0182,2.0183,2.0184,2.0224,2.0224,2.0223,2.0223,2.0343,2.0347,2.0351,0,0,0,0,0,0,0,0,0,0,0,0,0,1.986,1.9863,2.0061,2.0062,2.0064,2.0181,2.0183,2.0185,2.0224,2.0224,2.0223,2.0223,2.0342,2.0346,2.0351,0,0,0,0,0,0,0,0,0,0,0,0,0,1.996,1.9864,2.0061,2.0098,2.0102,2.0181,2.0183,2.0185,2.0224,2.0224,2.0223,2.0222,2.0341,2.0346,2.0351,2.0401,0,0,2.0368,2.0371,0,0,0,0,0,0,0,0,1.9954,1.9968,2.0091,2.0095,2.0101,2.0187,2.0156,2.0257,2.0225,2.0178,2.0223,2.0222,2.0292,2.0301,2.0326,2.0407,2.0412,2.0369,2.0372,2.0375,2.0376,0,0,0,0,0,0,0,1.9947,1.9963,2.0109,2.0093,2.0099,2.0107,2.012,2.0176,2.0238,2.0182,2.0185,2.0199,2.0294,2.032,2.0329,2.0414,2.0369,2.0374,2.0377,2.0379,2.0538,2.0539,0,0,0,0,0,0,1.9935,1.9957,2.0105,2.0112,2.0024,2.0111,2.0126,2.016,2.0237,2.0248,2.02,2.0201,2.0311,2.0322,2.0333,2.0394,2.0375,2.038,2.0383,2.0537,2.0538,2.0539,0,0,0,0,0,0,1.993,1.9948,2.01,2.0035,2.0055,2.0116,2.0153,2.0163,2.0189,2.0251,2.0261,2.0215,2.0311,2.0325,2.0383,2.0399,2.0382,2.0387,2.0536,2.0538,2.0539,2.0518,0,0,0,0,0,0,1.9924,1.9946,1.9967,2.0036,2.0059,2.015,2.0154,2.0166,2.0199,2.0201,2.0268,2.0278,2.0311,2.0375,2.0389,2.0407,2.0392,2.0535,2.0537,2.0538,2.0518,2.0519,2.052,0,0,0,0,0,1.9917,1.9956,1.9967,1.9985,2.0086,2.0151,2.0164,2.0202,2.02,2.022,2.0259,2.0276,2.0395,2.0381,2.0397,2.0416,2.0534,2.0536,2.0538,2.0518,2.0519,2.052,0,0,0,0,0,0,1.9887,1.9966,1.9979,2.0042,2.0089,2.0157,2.0184,2.0202,2.0251,2.0251,2.0295,2.031,2.0364,2.0396,2.0378,2.0466,2.0465,2.0471,2.0444,2.0446,2.0446,2.0437,2.0396,0,0,0,0,0,1.9888,1.9935,2.0001,2.0049,2.0072,2.0124,2.0154,2.0179,2.0229,2.0249,2.0293,2.034,2.0388,2.0418,2.0466,2.0522,2.0536,2.0544,2.0544,2.0545,2.0549,2.0579,2.0582,2.0546,2.0546,2.0546,0,0,1.9889,1.9938,1.9965,2.0044,2.0084,2.013,2.0141,2.019,2.0224,2.0256,2.0314,2.0347,2.0402,2.0459,2.0486,2.0487,2.0562,2.0547,2.0547,2.0551,2.0581,2.0584,2.0587,2.0547,2.0547,2.0547,0,0,1.9916,1.9959,2.0003,2.0042,2.0102,2.0136,2.0146,2.0211,2.0235,2.0293,2.0318,2.0358,2.044,2.0478,2.0508,2.0546,2.0562,2.056,2.0565,2.0593,2.0596,2.0598,2.0611,2.0614,2.0564,2.0564,2.0564,0,1.9911,1.9983,2.0023,2.0071,2.0103,2.0135,2.0179,2.0215,2.0287,2.0308,2.0308,2.041,2.045,2.0515,2.0524,2.0548,2.0559,2.0553,2.0592,2.0595,2.0599,2.061,2.0615,2.0563,2.0563,2.0563,2.0563,0,1.9972,2.0021,2.0049,2.0118,2.0154,2.02,2.0245,2.0277,2.0298,2.0331,2.0388,2.0437,2.0494,2.0511,2.0532,2.0578,2.0577,2.0584,2.0584,2.0601,2.0612,2.0617,2.0562,2.0562,2.0562,2.0562,0,0,1.9984,2.0074,2.0083,2.0114,2.0181,2.0219,2.0264,2.0321,2.0346,2.0394,2.0432,2.0499,2.0506,2.0539,2.0565,2.059,2.0615,2.0594,2.0596,2.0595,2.0666,2.0659,2.0664,2.0626,2.0627,2.0628,2.0661,0,2.0019,2.0103,2.014,2.0206,2.0251,2.0281,2.032,2.0364,2.0395,2.0436,2.047,2.0517,2.0523,2.0543,2.0569,2.0606,2.0629,2.0604,2.066,2.0661,2.0645,2.0671,2.0665,2.0694,2.0666,2.0667,2.0667,0,2.0071,2.0119,2.019,2.025,2.027,2.0305,2.0358,2.0398,2.0447,2.0468,2.0505,2.0529,2.0575,2.0571,2.0634,2.0616,2.0641,2.0662,2.0664,2.067,2.0665,2.0677,2.0705,2.0708,2.0675,2.0675,2.0674,0,2.0071,2.0153,2.0206,2.0232,2.0303,2.0327,2.0357,2.0406,2.0437,2.0483,2.0503,2.0553,2.058,2.0618,2.0654,2.0648,2.0713,2.0712,2.073,2.0729,2.0743,2.0741,2.0773,2.0759,2.0759,2.0759,2.0759,0,2.0105,2.0147,2.0207,2.0239,2.0286,2.0327,2.0372,2.0404,2.0447,2.0485,2.0513,2.0548,2.0593,2.0633,2.0661,2.0708,2.072,2.0737,2.0744,2.0734,2.0732,2.0751,2.075,2.076,2.076,2.0759,2.0759,0,2.0114,2.0156,2.0215,2.0277,2.0294,2.0326,2.0378,2.041,2.0442,2.0489,2.0502,2.0552,2.0599,2.0639,2.0701,2.072,2.0769,2.0777,2.0752,2.0756,2.0771,2.0768,2.0816,2.0824,2.0804,2.0804,2.0804,0,2.0133,2.0166,2.0231,2.0259,2.029,2.0334,2.0365,2.0406,2.0437,2.0494,2.0518,2.0568,2.061,2.0685,2.0725,2.0772,2.0782,2.0795,2.0789,2.0778,2.0781,2.0778,2.0781,2.0795,2.0795,2.0795,2.0795,0,2.0161,2.018,2.0225,2.0276,2.0313,2.0355,2.0398,2.0418,2.0466,2.0499,2.0549,2.0581,2.0645,2.0693,2.0744,2.0774,2.0792,2.0797,2.0803,2.0794,2.0778,2.0785,2.0753,2.0796,2.0796,2.0796,2.0796,2.0796,2.0175,2.0205,2.0256,2.0304,2.034,2.0379,2.0411,2.0447,2.0489,2.0545,2.0566,2.0616,2.0662,2.0733,2.0762,2.0801,2.0803,2.0812,2.0815,2.0816,2.0814,2.0771,2.081,2.081,2.081,2.081,2.081,0,2.0204,2.0238,2.0282,2.0341,2.0378,2.0393,2.044,2.047,2.0514,2.0556,2.0597,2.0653,2.0699,2.0743,2.0791,2.0813,2.0822,2.0824,2.0823,2.0829,2.081,2.0799,2.0816,2.0816,2.0816,2.0816,2.0816,2.0816,2.0224,2.0275,2.0299,2.0367,2.04,2.0451,2.0476,2.0511,2.0545,2.0606,2.0645,2.0674,2.0716,2.0767,2.0809,2.0821,2.0837,2.0836,2.085,2.0831,2.083,2.0829,2.0819,2.084,2.084,2.0865,2.0865,2.0865]}]]